#timestamp,LO_Frequency,Hit,StdDev 
1548601215.8,286046998.9,N
1548601235.6,286046999.3,N
1548601255.5,286047000.7,N
1548601275.3,286047002.8,N
1548601295.1,286047000.4,N
1548601315.9,286046998.3,N
1548601335.7,286046996.5,N
1548601355.6,286046997.5,N
1548601375.4,286046994.9,N
1548601395.2,286046997.4,N
1548601415.1,286046997.6,N
1548601416.0,286046997.6,N
1548601435.8,286046994.9,N
1548601455.7,286046995.0,N
1548601475.5,286046995.3,N
1548601495.3,286046997.7,N
1548601515.2,286046997.3,N
1548601535.0,286046996.7,N
1548601535.9,286046996.7,N
1548601555.8,286046997.0,N
1548601575.6,286046999.6,N
1548601595.4,286046996.6,N
1548601615.3,286046994.9,N
1548601635.1,286046997.1,N
1548601655.8,286046994.9,N
1548601675.7,286046993.9,Y
1548601695.5,286046997.6,P
1548601715.4,286046995.5,P
1548601735.2,286046997.0,P
1548601755.0,286046998.3,N
1548601755.9,286046998.3,N
1548601775.8,286047001.1,N
1548601795.6,286046999.7,N
1548601815.5,286047002.5,N
1548601835.3,286047004.1,N
1548601855.1,286047002.1,N
1548601875.9,286047000.3,N
1548601895.7,286046998.8,N
1548601915.6,286046998.0,N
1548601935.4,286046993.3,N
1548601955.2,286046994.6,N
1548601975.1,286046992.1,N
1548601976.0,286046992.1,N
1548601995.8,286046990.6,N
1548602015.7,286046991.4,N
1548602035.5,286046991.2,N
1548602055.3,286046989.1,N
1548602075.2,286046991.4,N
1548602095.0,286046991.3,N
1548602095.9,286046991.3,N
1548602115.8,286046990.7,N
1548602135.6,286046991.1,N
1548602155.4,286046989.1,N
1548602175.3,286046986.9,N
1548602195.1,286046989.2,N
1548602215.9,286046989.3,N
1548602235.7,286046989.0,N
1548602255.5,286046991.6,N
1548602275.4,286046991.2,N
1548602295.2,286046991.0,N
1548602315.0,286046991.5,N
1548602316.0,286046991.5,N
1548602335.8,286046991.2,N
1548602355.6,286046988.6,N
1548602375.5,286046989.7,N
1548602395.3,286046988.9,Y
1548602415.1,286046995.6,P
1548602435.9,286046997.4,N
1548602455.7,286046997.7,N
1548602475.6,286046996.5,N
1548602495.4,286046999.2,N
1548602515.2,286046998.7,N
1548602535.1,286046999.1,N
1548602536.0,286046999.1,N
1548602555.8,286046998.8,N
1548602575.6,286046998.7,N
1548602595.5,286047000.8,N
1548602615.3,286047001.8,N
1548602635.2,286047002.8,N
1548602655.9,286047000.5,N
1548602675.7,286046998.8,N
1548602695.6,286046999.0,N
1548602715.4,286046998.2,N
1548602735.3,286047000.8,N
1548602755.1,286047001.1,N
1548602756.0,286047001.1,N
1548602775.8,286046998.8,N
1548602795.7,286046998.6,N
1548602815.5,286047000.6,N
1548602835.4,286047001.0,N
1548602855.2,286046999.1,N
1548602875.0,286046998.1,N
1548602875.9,286046998.1,N
1548602895.8,286047001.2,N
1548602915.6,286047001.0,N
1548602935.4,286046998.8,N
1548602955.3,286047001.0,N
1548602975.1,286047000.8,N
1548602995.9,286046999.0,N
1548603015.7,286046999.8,N
1548603035.5,286047002.6,N
1548603055.4,286047002.8,N
1548603075.2,286047000.6,N
1548603095.1,286047002.3,N
1548603096.0,286047002.3,N
1548603115.8,286047000.5,N
1548603135.6,286047000.2,N
1548603155.5,286047002.8,N
1548603175.3,286047002.1,N
1548603195.2,286047001.8,N
1548603215.9,286047003.6,N
1548603235.7,286047003.9,N
1548603255.6,286047002.2,N
1548603275.4,286047001.8,N
1548603295.2,286047004.1,N
1548603315.1,286047002.3,N
1548603316.0,286047002.3,N
1548603335.8,286047000.2,N
1548603355.7,286047000.9,N
1548603375.5,286047000.9,N
1548603395.3,286047002.8,N
1548603415.2,286047001.6,N
1548603435.0,286047003.9,N
1548603435.9,286047003.9,N
1548603455.8,286047001.5,N
1548603505.6,286047000.2,E
1548603515.6,286046999.7,N
1548603535.4,286047001.8,P
1548603555.2,286047004.0,P
1548603575.1,286047003.2,N
1548603576.0,286047003.2,N
1548603595.8,286047003.8,N
1548603615.6,286047003.8,N
1548603635.5,286047002.9,N
1548603655.3,286047003.0,N
1548603675.2,286047005.6,Y
1548603695.0,286047001.5,P
1548603695.9,286047001.5,N
1548603715.8,286047002.2,P
1548603735.6,286046999.8,N
1548603755.4,286047000.1,N
1548603775.3,286047002.1,N
1548603795.1,286047002.7,N
1548603815.8,286047000.7,N
1548603835.7,286047000.4,N
1548603855.5,286047000.0,N
1548603875.4,286047000.9,N
1548603895.2,286047002.4,N
1548603915.0,286047002.0,N
1548603915.9,286047002.0,N
1548603935.8,286047002.0,N
1548603955.6,286047002.7,N
1548603975.4,286047002.2,N
1548603995.3,286047002.1,N
1548604015.1,286046999.9,N
1548604035.9,286046998.1,N
1548604055.7,286047000.8,N
1548604075.5,286047000.9,N
1548604095.4,286046999.9,N
1548604115.2,286047001.7,N
1548604135.0,286047002.3,N
1548604136.0,286047002.3,N
1548604155.8,286047001.0,N
1548604175.6,286047002.0,N
1548604195.5,286047001.9,N
1548604215.3,286047002.0,N
1548604235.1,286047001.3,N
1548604255.9,286047003.4,Y
1548604275.7,286047001.8,P
1548604295.6,286047002.2,P
1548604315.4,286047002.0,P
1548604335.2,286047001.9,Y
1548604355.1,286047001.0,P
1548604356.0,286047001.0,N
1548604375.8,286047002.5,P
1548604395.7,286047002.3,Y
1548604415.5,286046998.3,P
1548604435.3,286046998.9,N
1548604455.2,286046999.1,N
1548604475.0,286046997.3,N
1548604475.9,286046997.3,N
1548604495.7,286046997.2,N
1548604515.6,286046996.8,N
1548604535.4,286046999.4,N
1548604555.3,286046999.0,N
1548604575.1,286046996.6,N
1548604576.0,286046996.6,N
1548604595.8,286046997.0,N
1548604615.7,286046997.1,N
1548604635.5,286046997.7,N
1548604655.3,286046997.3,N
1548604675.2,286046997.7,N
1548604695.0,286046997.6,N
1548604695.9,286046997.6,N
1548604715.8,286046997.4,N
1548604735.6,286046997.5,N
1548604755.4,286046997.6,N
1548604775.3,286046997.2,N
1548604795.1,286046997.5,N
